Bedford County, PA

12:53 AM EST on December 12, 2019 (GMT -0500)
Bedford County

Weather History for KHMZ - October, 2019

Change the Weather History Date:

Thursday, October 17, 2019

  Actual Average (KAOO) Record (KAOO)
Temperature  
Mean Temperature 45 °F -  
Max Temperature 48 °F 58 °F 78 °F (1963)
Min Temperature 42 °F 39 °F 30 °F (1981)
Degree Days  
Heating Degree Days 20    
Moisture  
Dew Point 36 °F    
Average Humidity 70    
Maximum Humidity 85    
Minimum Humidity 60    
Precipitation  
Precipitation 0.03 in - - ()
Sea Level Pressure  
Sea Level Pressure 29.70 in    
Wind  
Wind Speed 15 mph ()    
Max Wind Speed 24 mph    
Max Gust Speed 37 mph    
Visibility 9.7 miles    
Events Rain    
Averages and records for this station are not official NWS values.
T = Trace of Precipitation, MM = Missing Value Source: Averaged Metar Reports

Daily Weather History Graph

Daily Weather History Graph

Search for Another Location

Airport or City:

Astronomy

Oct. 17, 2019 Rise Set
Actual Time 7:26 AM EDT 6:31 PM EDT
Civil Twilight 6:59 AM EDT 6:59 PM EDT
Nautical Twilight 6:27 AM EDT 7:30 PM EDT
Astronomical Twilight 5:56 AM EDT 8:01 PM EDT
Moon 9:02 PM EDT (10/17) 10:56 AM EDT (10/17)
Length of Visible Light 12h 00m
Length of Day
11h 05m
Waning Gibbous, 87% of the Moon is Illuminated
Oct 17
Waning Gibbous
Oct 21
Last Quarter
Oct 27
New
Nov 4
First Quarter
Nov 12
Full

Hourly Weather History & Observations

Time (EDT) Temp. Windchill Dew Point Humidity Pressure Visibility Wind Dir Wind Speed Gust Speed Precip Events Conditions
12:15 AM 46.8 °F - 38.3 °F 72% 29.57 in 10.0 mi West 13.8 mph 21.9 mph N/A   Overcast
12:35 AM 46.9 °F - 38.5 °F 72% 29.58 in 10.0 mi West 13.8 mph 26.5 mph N/A   Overcast
12:55 AM 46.8 °F - 38.7 °F 73% 29.58 in 10.0 mi West 15.0 mph 26.5 mph N/A   Overcast
1:15 AM 46.8 °F - 38.7 °F 73% 29.58 in 10.0 mi WNW 15.0 mph 21.9 mph N/A   Overcast
1:35 AM 46.6 °F - 38.5 °F 73% 29.58 in 10.0 mi West 8.1 mph 17.3 mph N/A   Overcast
1:55 AM 46.8 °F - 37.9 °F 71% 29.58 in 10.0 mi NW 15.0 mph 19.6 mph N/A   Overcast
2:15 AM 46.9 °F - 37.4 °F 69% 29.58 in 10.0 mi West 11.5 mph 19.6 mph N/A   Overcast
2:35 AM 46.0 °F 39.3 °F 36.3 °F 69% 29.58 in 10.0 mi West 16.1 mph 21.9 mph N/A   Overcast
2:55 AM 45.5 °F 37.8 °F 36.5 °F 71% 29.58 in 10.0 mi West 19.6 mph 31.1 mph N/A   Overcast
3:15 AM 45.3 °F 38.1 °F 35.6 °F 69% 29.58 in 10.0 mi WNW 17.3 mph 26.5 mph N/A   Overcast
3:35 AM 43.7 °F 35.2 °F 37.4 °F 78% 29.59 in 5.0 mi WNW 20.7 mph 32.2 mph N/A   Unknown
3:55 AM - - - N/A% 29.59 in 7.0 mi WNW 16.1 mph 28.8 mph N/A Rain Light Rain
4:15 AM 42.6 °F 35.6 °F 38.5 °F 85% 29.60 in 5.0 mi WNW 13.8 mph 18.4 mph 0.01 in   Unknown
4:35 AM 42.3 °F 33.1 °F 36.9 °F 81% 29.60 in 10.0 mi West 21.9 mph 35.7 mph 0.03 in   Unknown
4:55 AM 42.4 °F 33.5 °F 36.9 °F 81% 29.60 in 10.0 mi WNW 20.7 mph 26.5 mph 0.03 in   Overcast
5:15 AM 42.8 °F 35.8 °F 36.9 °F 80% 29.60 in 10.0 mi WNW 13.8 mph 23.0 mph N/A   Overcast
5:35 AM 43.7 °F 35.7 °F 36.9 °F 77% 29.60 in 10.0 mi NW 18.4 mph 28.8 mph N/A   Overcast
5:55 AM 43.3 °F 37.2 °F 37.4 °F 80% 29.60 in 10.0 mi West 11.5 mph 27.6 mph N/A   Overcast
6:15 AM 44.1 °F 35.9 °F 36.3 °F 74% 29.60 in 10.0 mi WNW 19.6 mph 27.6 mph N/A   Overcast
6:35 AM 43.7 °F 37.3 °F 36.7 °F 76% 29.62 in 10.0 mi WNW 12.7 mph 19.6 mph N/A   Overcast
6:55 AM 43.2 °F 35.0 °F 37.2 °F 80% 29.62 in 5.0 mi WNW 18.4 mph 34.5 mph N/A   Unknown
7:15 AM 43.7 °F 36.9 °F 36.7 °F 76% 29.62 in 10.0 mi WNW 13.8 mph 24.2 mph N/A   Overcast
7:35 AM 44.1 °F 35.0 °F 36.1 °F 74% 29.63 in 10.0 mi WNW 24.2 mph 32.2 mph N/A   Overcast
7:55 AM 44.2 °F 37.0 °F 36.1 °F 73% 29.64 in 10.0 mi WNW 16.1 mph 29.9 mph N/A   Overcast
8:15 AM 43.9 °F 36.2 °F 36.5 °F 75% 29.65 in 10.0 mi WNW 17.3 mph 25.3 mph N/A   Overcast
8:35 AM 43.7 °F 36.9 °F 36.7 °F 76% 29.65 in 10.0 mi West 13.8 mph 29.9 mph N/A   Overcast
8:55 AM 43.7 °F 38.1 °F 37.0 °F 77% 29.66 in 10.0 mi WNW 10.4 mph 20.7 mph N/A   Overcast
9:15 AM 43.9 °F 36.8 °F 37.4 °F 78% 29.66 in 7.0 mi West 15.0 mph 28.8 mph N/A   Overcast
9:35 AM 43.7 °F 35.0 °F 37.6 °F 79% 29.66 in 7.0 mi WNW 21.9 mph 29.9 mph N/A   Overcast
9:55 AM 43.9 °F 34.7 °F 37.2 °F 77% 29.66 in 10.0 mi WNW 24.2 mph 36.8 mph N/A   Overcast
10:15 AM 44.4 °F 35.9 °F 36.7 °F 74% 29.67 in 10.0 mi WNW 21.9 mph 32.2 mph N/A   Overcast
10:35 AM 44.8 °F 36.9 °F 37.2 °F 75% 29.67 in 10.0 mi WNW 19.6 mph 31.1 mph N/A   Overcast
10:55 AM 44.6 °F 36.1 °F 36.5 °F 73% 29.68 in 10.0 mi WNW 21.9 mph 33.4 mph N/A   Overcast
11:15 AM 44.8 °F 37.4 °F 36.7 °F 73% 29.69 in 10.0 mi WNW 17.3 mph 27.6 mph N/A   Overcast
11:35 AM 45.5 °F 40.8 °F 36.7 °F 71% 29.70 in 10.0 mi NW 9.2 mph 21.9 mph N/A   Overcast
12:15 PM 45.5 °F 37.6 °F 36.0 °F 69% 29.70 in 10.0 mi WNW 20.7 mph 34.5 mph N/A   Overcast
12:35 PM 45.9 °F 37.4 °F 36.1 °F 69% 29.70 in 10.0 mi WNW 24.2 mph 29.9 mph N/A   Overcast
12:55 PM 46.0 °F 38.3 °F 36.5 °F 69% 29.70 in 10.0 mi WNW 20.7 mph 29.9 mph N/A   Overcast
1:15 PM 45.7 °F 38.8 °F 36.5 °F 70% 29.71 in 10.0 mi WNW 16.1 mph 27.6 mph N/A   Overcast
1:35 PM 45.5 °F 38.9 °F 36.1 °F 70% 29.71 in 10.0 mi NW 15.0 mph 29.9 mph N/A   Overcast
1:55 PM 45.5 °F 36.9 °F 36.1 °F 70% 29.71 in 10.0 mi NW 24.2 mph 31.1 mph N/A   Overcast
2:15 PM 45.5 °F 38.3 °F 36.5 °F 71% 29.72 in 10.0 mi WNW 17.3 mph 28.8 mph N/A   Overcast
2:35 PM 45.1 °F 37.3 °F 36.5 °F 72% 29.73 in 10.0 mi WNW 19.6 mph 28.8 mph N/A   Overcast
2:55 PM 45.0 °F 36.4 °F 35.6 °F 70% 29.73 in 10.0 mi WNW 23.0 mph 31.1 mph N/A   Overcast
3:15 PM 48.2 °F - 36.1 °F 63% 29.74 in 10.0 mi WNW 16.1 mph 27.6 mph N/A   Overcast
3:35 PM 47.5 °F - 36.1 °F 65% 29.74 in 10.0 mi WNW 18.4 mph 29.9 mph N/A   Overcast
3:55 PM 47.7 °F - 35.8 °F 63% 29.75 in 10.0 mi WNW 13.8 mph 29.9 mph N/A   Mostly Cloudy
4:15 PM 47.3 °F - 35.8 °F 64% 29.75 in 10.0 mi WNW 20.7 mph 29.9 mph N/A   Overcast
4:35 PM 47.7 °F - 35.8 °F 63% 29.76 in 10.0 mi NW 15.0 mph 32.2 mph N/A   Overcast
4:55 PM 47.5 °F - 34.9 °F 62% 29.77 in 10.0 mi WNW 15.0 mph 25.3 mph N/A   Overcast
5:15 PM 47.3 °F - 34.5 °F 61% 29.78 in 10.0 mi WNW 12.7 mph 25.3 mph N/A   Overcast
5:35 PM 47.5 °F - 34.5 °F 61% 29.78 in 10.0 mi WNW 17.3 mph 28.8 mph N/A   Overcast
5:55 PM 46.6 °F - 34.3 °F 62% 29.78 in 10.0 mi WNW 18.4 mph 25.3 mph N/A   Overcast
6:15 PM 46.4 °F 39.8 °F 34.3 °F 63% 29.79 in 10.0 mi NW 16.1 mph 27.6 mph N/A   Overcast
6:35 PM 46.4 °F 41.1 °F 34.0 °F 62% 29.80 in 10.0 mi West 11.5 mph 27.6 mph N/A   Overcast
6:55 PM 46.2 °F 40.5 °F 33.6 °F 61% 29.81 in 10.0 mi WNW 12.7 mph 29.9 mph N/A   Overcast
7:35 PM 45.9 °F 39.1 °F 32.9 °F 61% 29.82 in 10.0 mi WNW 16.1 mph 25.3 mph N/A   Overcast
7:55 PM 45.9 °F 39.7 °F 32.5 °F 60% 29.82 in 10.0 mi WNW 13.8 mph 25.3 mph N/A   Overcast
8:15 PM 45.5 °F 38.1 °F 32.5 °F 61% 29.83 in 10.0 mi NW 18.4 mph 25.3 mph N/A   Overcast
8:35 PM 45.5 °F 41.3 °F 32.7 °F 61% 29.84 in 10.0 mi WNW 8.1 mph 18.4 mph N/A   Overcast
8:55 PM 45.5 °F 40.3 °F 32.9 °F 61% 29.84 in 10.0 mi WNW 10.4 mph 23.0 mph N/A   Overcast
9:15 PM 45.0 °F 41.2 °F 33.1 °F 63% 29.85 in 10.0 mi NW 6.9 mph 16.1 mph N/A   Overcast
9:35 PM 45.1 °F 41.4 °F 33.1 °F 63% 29.87 in 10.0 mi WNW 6.9 mph - N/A   Overcast
9:55 PM 45.3 °F 41.1 °F 33.1 °F 62% 29.88 in 10.0 mi WNW 8.1 mph - N/A   Overcast
10:15 PM 45.3 °F 41.6 °F 33.1 °F 62% 29.88 in 10.0 mi WNW 6.9 mph 17.3 mph N/A   Overcast
10:35 PM 45.3 °F 40.6 °F 33.1 °F 62% 29.88 in 10.0 mi WNW 9.2 mph - N/A   Overcast
10:55 PM 45.3 °F 39.7 °F 33.4 °F 63% 29.88 in 10.0 mi NW 11.5 mph 16.1 mph N/A   Overcast
11:15 PM 44.8 °F 39.4 °F 34.2 °F 66% 29.88 in 10.0 mi WNW 10.4 mph 16.1 mph N/A   Overcast
11:35 PM 44.1 °F 39.0 °F 34.0 °F 68% 29.88 in 10.0 mi NW 9.2 mph 18.4 mph N/A   Overcast
11:55 PM 44.4 °F 38.6 °F 34.3 °F 68% 29.88 in 10.0 mi WNW 11.5 mph 18.4 mph N/A   Overcast